| time (UTC) | temp F | wind direction | speed MPH | gust MPH | rain 1hr in | rain 24hr in | rain mn in | humidity % | barometer mb |
| 20260506102505 | 61 | 0.0 | 0.0 | 0.00 | 0.00 | 8.26 | 67 | 1014.0 | |
| 20260506101505 | 61 | 0.0 | 0.0 | 0.00 | 0.00 | 8.26 | 67 | 1014.1 | |
| 20260506100512 | 60 | 0.0 | 0.0 | 0.00 | 0.00 | 8.26 | 70 | 1014.3 | |
| 20260506095505 | 62 | 0.0 | 0.0 | 0.00 | 0.00 | 8.26 | 65 | 1013.9 | |
| 20260506094505 | 62 | 0.0 | 0.0 | 0.00 | 0.00 | 8.26 | 66 | 1013.7 | |
| 20260506093505 | 61 | 0.0 | 0.0 | 0.00 | 0.00 | 8.26 | 68 | 1013.7 | |
| 20260506092505 | 61 | 0.0 | 0.0 | 0.00 | 0.00 | 8.26 | 67 | 1013.5 | |
| 20260506091505 | 61 | 0.0 | 0.0 | 0.00 | 0.00 | 8.26 | 67 | 1013.3 | |
| 20260506090505 | 61 | 0.0 | 0.0 | 0.00 | 0.00 | 8.26 | 67 | 1013.1 | |
| 20260506085505 | 61 | 0.0 | 0.0 | 0.00 | 0.00 | 8.26 | 67 | 1013.1 | |
| 20260506084505 | 61 | 0.0 | 0.0 | 0.00 | 0.00 | 8.26 | 67 | 1013.2 | |
| 20260506083505 | 61 | 0.0 | 0.0 | 0.00 | 0.00 | 8.26 | 68 | 1013.3 | |
| 20260506082505 | 60 | 0.0 | 0.0 | 0.00 | 0.00 | 8.26 | 71 | 1013.5 | |
| 20260506081505 | 59 | 0.0 | 0.0 | 0.00 | 0.00 | 8.26 | 71 | 1013.5 | |
| 20260506080505 | 60 | 0.0 | 0.0 | 0.00 | 0.00 | 8.26 | 69 | 1013.3 | |
| 20260506073505 | 61 | 0.0 | 0.0 | 0.00 | 0.00 | 8.26 | 66 | 1012.8 | |
| 20260506072505 | 62 | 0.0 | 0.0 | 0.00 | 0.00 | 8.26 | 66 | 1012.6 | |
| 20260506071505 | 62 | 0.0 | 0.0 | 0.00 | 0.00 | 8.26 | 65 | 1012.5 | |
| 20260506070505 | 63 | 0.0 | 0.0 | 0.00 | 0.00 | 8.26 | 63 | 1012.6 | |
| 20260506062505 | 64 | 0.0 | 0.0 | 0.00 | 0.00 | 8.26 | 60 | 1012.7 | |
| 20260506061505 | 64 | 0.0 | 0.0 | 0.00 | 0.00 | 8.26 | 60 | 1012.7 | |
| 20260506060505 | 64 | 0.0 | 0.0 | 0.00 | 0.00 | 8.26 | 61 | 1012.9 | |
| 20260506050505 | 64 | 0.0 | 0.0 | 0.00 | 0.00 | 8.26 | 61 | 1013.3 | |
| 20260506044505 | 64 | 0.0 | 0.0 | 0.00 | 0.00 | 8.26 | 61 | 1013.3 | |
| 20260506043505 | 64 | 0.0 | 0.0 | 0.00 | 0.00 | 8.26 | 61 | 1013.5 | |
| 20260506042505 | 63 | 0.0 | 0.0 | 0.00 | 0.00 | 8.26 | 62 | 1013.6 | |
| 20260506041505 | 64 | 0.0 | 0.0 | 0.00 | 0.00 | 8.26 | 61 | 1013.6 | |
| 20260506040505 | 64 | 0.0 | 0.0 | 0.00 | 0.00 | 8.26 | 60 | 1013.6 | |
| 20260506035505 | 64 | 0.0 | 0.0 | 0.00 | 0.00 | 8.26 | 61 | 1013.7 | |
| 20260506034505 | 64 | 0.0 | 0.0 | 0.00 | 0.00 | 8.26 | 61 | 1013.8 | |
| 20260506033505 | 64 | 0.0 | 0.0 | 0.00 | 0.00 | 8.26 | 62 | 1013.8 | |
| 20260506032505 | 63 | 0.0 | 0.0 | 0.00 | 0.00 | 8.26 | 63 | 1013.8 | |
| 20260506031505 | 62 | 0.0 | 0.0 | 0.00 | 0.00 | 8.26 | 66 | 1013.9 | |
| 20260506030505 | 62 | 0.0 | 0.0 | 0.00 | 0.00 | 8.26 | 65 | 1013.9 | |
| 20260506025505 | 63 | 0.0 | 0.0 | 0.00 | 0.00 | 8.26 | 63 | 1013.7 | |
| 20260506024505 | 64 | 0.0 | 0.0 | 0.00 | 0.00 | 8.26 | 60 | 1013.5 | |
| 20260506023505 | 65 | 0.0 | 0.0 | 0.00 | 0.00 | 8.26 | 60 | 1013.6 | |
| 20260506022505 | 64 | 0.0 | 0.0 | 0.00 | 0.00 | 8.26 | 60 | 1013.6 | |
| 20260506021505 | 64 | 0.0 | 0.0 | 0.00 | 0.00 | 8.26 | 61 | 1013.7 | |
| 20260506020505 | 64 | 0.0 | 0.0 | 0.00 | 0.00 | 8.26 | 61 | 1013.6 | |
| 20260506015505 | 65 | 0.0 | 0.0 | 0.00 | 0.00 | 8.26 | 60 | 1013.6 | |
| 20260506014505 | 65 | 0.0 | 0.0 | 0.00 | 0.00 | 8.26 | 60 | 1013.5 | |
| 20260506013505 | 64 | 0.0 | 0.0 | 0.00 | 0.00 | 8.26 | 62 | 1013.7 | |
| 20260506012505 | 64 | 0.0 | 0.0 | 0.00 | 0.00 | 8.26 | 63 | 1013.9 | |
| 20260506011505 | 63 | 0.0 | 0.0 | 0.00 | 0.00 | 8.26 | 64 | 1013.9 | |
| 20260506010505 | 63 | 0.0 | 0.0 | 0.00 | 0.00 | 8.26 | 64 | 1014.0 | |
| 20260506005505 | 62 | 0.0 | 0.0 | 0.00 | 0.00 | 8.26 | 66 | 1014.2 | |
| 20260506004505 | 63 | 0.0 | 0.0 | 0.00 | 0.00 | 8.26 | 64 | 1014.0 | |
| 20260506003505 | 64 | 0.0 | 0.0 | 0.00 | 0.00 | 8.26 | 62 | 1013.7 | |
| 20260506002505 | 64 | 0.0 | 0.0 | 0.00 | 0.00 | 8.26 | 62 | 1013.5 | |
| 20260506001505 | 65 | 0.0 | 0.0 | 0.00 | 0.00 | 8.26 | 62 | 1013.1 | |
| 20260506000505 | 65 | 0.0 | 0.0 | 0.00 | 0.00 | 8.26 | 61 | 1012.8 | |
| 20260505235505 | 66 | 0.0 | 0.0 | 0.00 | 0.00 | 8.26 | 60 | 1012.6 | |
| 20260505234505 | 65 | 0.0 | 0.0 | 0.00 | 0.00 | 8.26 | 61 | 1012.7 | |
| 20260505233505 | 65 | 0.0 | 0.0 | 0.00 | 0.00 | 8.26 | 61 | 1012.6 | |
| 20260505232505 | 65 | 0.0 | 0.0 | 0.00 | 0.00 | 8.26 | 61 | 1012.5 | |
| 20260505231505 | 66 | 0.0 | 0.0 | 0.00 | 0.00 | 8.26 | 60 | 1012.5 | |
| 20260505230505 | 66 | 0.0 | 0.0 | 0.00 | 0.00 | 8.26 | 59 | 1012.4 | |
| 20260505225505 | 66 | 0.0 | 0.0 | 0.00 | 0.00 | 8.26 | 59 | 1012.1 | |
| 20260505224505 | 67 | 0.0 | 0.0 | 0.00 | 0.00 | 8.26 | 59 | 1011.9 | |
| 20260505223505 | 67 | 0.0 | 0.0 | 0.00 | 0.00 | 8.26 | 57 | 1011.7 | |
| 20260505222505 | 67 | 0.0 | 0.0 | 0.00 | 0.00 | 8.26 | 58 | 1011.6 | |
| 20260505221505 | 68 | 0.0 | 0.0 | 0.00 | 0.00 | 8.26 | 57 | 1011.5 | |
| 20260505220505 | 68 | 0.0 | 0.0 | 0.00 | 0.00 | 8.26 | 57 | 1011.2 | |
| 20260505215505 | 68 | 0.0 | 0.0 | 0.00 | 0.00 | 8.26 | 55 | 1011.1 | |
| 20260505214505 | 69 | 0.0 | 0.0 | 0.00 | 0.00 | 8.26 | 53 | 1010.8 | |
| 20260505213505 | 69 | 0.0 | 0.0 | 0.00 | 0.00 | 8.26 | 51 | 1010.5 | |
| 20260505212505 | 70 | 0.0 | 0.0 | 0.00 | 0.00 | 8.26 | 50 | 1010.1 | |
| 20260505211505 | 70 | 0.0 | 0.0 | 0.00 | 0.00 | 8.26 | 48 | 1010.1 | |
| 20260505210505 | 70 | 0.0 | 0.0 | 0.00 | 0.00 | 8.26 | 47 | 1010.1 | |
| 20260505205505 | 70 | 0.0 | 0.0 | 0.00 | 0.00 | 8.26 | 45 | 1010.1 | |
| 20260505204505 | 70 | 0.0 | 0.0 | 0.00 | 0.00 | 8.26 | 43 | 1010.1 | |
| 20260505203505 | 71 | 0.0 | 0.0 | 0.00 | 0.00 | 8.26 | 41 | 1010.0 | |
| 20260505202505 | 71 | 0.0 | 0.0 | 0.00 | 0.00 | 8.26 | 40 | 1009.9 | |
| 20260505201505 | 72 | 0.0 | 0.0 | 0.00 | 0.00 | 8.26 | 38 | 1009.7 | |
| 20260505200505 | 73 | 0.0 | 0.0 | 0.00 | 0.00 | 8.26 | 37 | 1009.6 | |
| 20260505195505 | 72 | 0.0 | 0.0 | 0.00 | 0.00 | 8.26 | 38 | 1009.7 | |
| 20260505194505 | 72 | 0.0 | 0.0 | 0.00 | 0.00 | 8.26 | 37 | 1009.7 | |
| 20260505193505 | 73 | 0.0 | 0.0 | 0.00 | 0.00 | 8.26 | 36 | 1009.5 | |
| 20260505192505 | 73 | 0.0 | 0.0 | 0.00 | 0.00 | 8.26 | 35 | 1009.5 | |
| 20260505191505 | 73 | 0.0 | 0.0 | 0.00 | 0.00 | 8.26 | 34 | 1009.4 | |
| 20260505190505 | 73 | 0.0 | 0.0 | 0.00 | 0.00 | 8.26 | 34 | 1009.3 | |
| 20260505185505 | 73 | 0.0 | 0.0 | 0.00 | 0.00 | 8.26 | 34 | 1009.2 | |
| 20260505184505 | 74 | 0.0 | 0.0 | 0.00 | 0.00 | 8.26 | 33 | 1009.2 | |
| 20260505183505 | 74 | 0.0 | 0.0 | 0.00 | 0.00 | 8.26 | 31 | 1009.0 | |
| 20260505182505 | 74 | 0.0 | 0.0 | 0.00 | 0.00 | 8.26 | 30 | 1009.0 | |
| 20260505181505 | 75 | 0.0 | 0.0 | 0.00 | 0.00 | 8.26 | 29 | 1008.8 | |
| 20260505180505 | 75 | 0.0 | 0.0 | 0.00 | 0.00 | 8.26 | 29 | 1008.7 | |
| 20260505175505 | 75 | 0.0 | 0.0 | 0.00 | 0.00 | 8.26 | 28 | 1008.8 | |
| 20260505174505 | 75 | 0.0 | 0.0 | 0.00 | 0.00 | 8.26 | 28 | 1008.7 | |
| 20260505173505 | 75 | 0.0 | 0.0 | 0.00 | 0.00 | 8.26 | 28 | 1008.6 | |
| 20260505172505 | 75 | 0.0 | 0.0 | 0.00 | 0.00 | 8.26 | 28 | 1008.6 | |
| 20260505171505 | 75 | 0.0 | 0.0 | 0.00 | 0.00 | 8.26 | 27 | 1008.7 | |
| 20260505170505 | 75 | 0.0 | 0.0 | 0.00 | 0.00 | 8.26 | 27 | 1008.7 | |
| 20260505165505 | 75 | 0.0 | 0.0 | 0.00 | 0.00 | 8.26 | 28 | 1008.6 | |
| 20260505164505 | 75 | 0.0 | 0.0 | 0.00 | 0.00 | 8.26 | 28 | 1008.8 | |
| 20260505163505 | 74 | 0.0 | 0.0 | 0.00 | 0.00 | 8.26 | 29 | 1009.1 | |
| 20260505162505 | 74 | 0.0 | 0.0 | 0.00 | 0.00 | 8.26 | 28 | 1009.0 | |
| 20260505161505 | 73 | 0.0 | 0.0 | 0.00 | 0.00 | 8.26 | 30 | 1009.1 | |
| 20260505160505 | 72 | 0.0 | 0.0 | 0.00 | 0.00 | 8.26 | 30 | 1009.5 | |
| 20260505152505 | 72 | 0.0 | 0.0 | 0.00 | 0.00 | 8.26 | 30 | 1009.8 | |
| 20260505151505 | 72 | 0.0 | 0.0 | 0.00 | 0.00 | 8.26 | 31 | 1010.2 | |
| 20260505150505 | 71 | 0.0 | 0.0 | 0.00 | 0.00 | 8.26 | 32 | 1010.5 | |
| 20260505140505 | 68 | 0.0 | 0.0 | 0.00 | 0.00 | 8.26 | 36 | 1011.2 | |
| 20260505124505 | 66 | 0.0 | 0.0 | 0.00 | 0.00 | 8.26 | 38 | 1012.5 | |
| 20260505123505 | 66 | 0.0 | 0.0 | 0.00 | 0.00 | 8.26 | 39 | 1012.7 | |
| 20260505122505 | 66 | 0.0 | 0.0 | 0.00 | 0.00 | 8.26 | 41 | 1012.7 | |
| 20260505121505 | 65 | 0.0 | 0.0 | 0.00 | 0.00 | 8.26 | 43 | 1013.1 | |
| 20260505120505 | 66 | 0.0 | 0.0 | 0.00 | 0.00 | 8.26 | 41 | 1013.2 | |
| 20260505115505 | 66 | 0.0 | 0.0 | 0.00 | 0.00 | 8.26 | 41 | 1013.3 | |
| 20260505114505 | 65 | 0.0 | 0.0 | 0.00 | 0.00 | 8.26 | 41 | 1013.3 | |
| 20260505113505 | 65 | 0.0 | 0.0 | 0.00 | 0.00 | 8.26 | 42 | 1013.5 | |
| 20260505112505 | 65 | 0.0 | 0.0 | 0.00 | 0.00 | 8.26 | 40 | 1013.4 | |
| 20260505111505 | 64 | 0.0 | 0.0 | 0.00 | 0.00 | 8.26 | 43 | 1013.3 | |
| 20260505110505 | 65 | 0.0 | 0.0 | 0.00 | 0.00 | 8.26 | 41 | 1013.7 |